Погода в Папоротно

Россия / Новгородская область     58°52′07″N   31°56′21″E
темп.,
°C
ветер,
м/с
пор.,
м/с
влажн.,
%
обл.,
%
осадки,
мм/ч
давл.,
гПа
погр.,
м
9 мая, вс
вс900:00+1зсз279799 0.0 1010193
03:00+1з269712 0.0 1011158
06:000з27935 0.0 1013193
09:00+7зсз47620 0.0 1014644
12:00+11зсз56376 0.0 10162266
15:00+12зсз47316 0.0 10182526
18:00+11сз36375 0.0 10192255
21:00+5зюз11615 0.0 102110
10 мая, пн
пн1000:00+3ю226810 0.0 102229
03:00+3ююв3774100 0.0 1024139
06:00+5ююв41171100 0.0 1024326
09:00+8ю51259100 0.0 1024717
12:00+9ю51464100 0.1 1024668
15:00+16ююз6950100 0.1 10241076
18:00+17ююз485692 0.0 10241071
21:00+12ю31275100 0.0 1025319
11 мая, вт
вт1100:00+11ю41378100 0.0 1026349
03:00+8ю31091100 0.0 1027232
06:00+8ю39885 0.0 1027232
09:00+15ююз475934 0.0 1028544
12:00+19ююз454399 0.0 10281112
15:00+21ю3441100 0.0 10271325
18:00+20ююв35495 0.0 10261170
21:00+14юв22745 0.0 102632
12 мая, ср
ср1200:00+11юв39830 0.0 1027175
03:00+9юв25830 0.0 102787
06:00+9вюв24795 0.0 102791
09:00+16юв24565 0.0 1026438
12:00+21вюв35450 0.0 10251189
15:00+23вюв46405 0.0 10231864
18:00+23в484897 0.0 10211662
21:00+16вюв388025 0.1 1022224
13 мая, чт
чт1300:00+13в3109737 0.3 1021246
03:00+14в4119299 0.4 1020630
06:00+14в4129097 0.0 1019719
09:00+16вюв5977100 0.1 1018936
12:00+17юв5107113 1.6 10171425
15:00+19ююв6115199 2.4 10162275
18:00+18ююв41054100 0.1 10161862
21:00+14ююв397299 0.1 1016308